Back to catalog

STARLINK-11743

AliveCommunicationsVLEO
NORAD 64379·PAYLOAD·🇺🇸 United States

Launched Jun 13, 2025 from Cape Canaveral Space Force Station

Loading…

Next Passes (next 24 hours)

TLE

FreshSource: CelesTrak SupGP

Epoch: Sep 14, 2026, 14:51 UTC

1 64379C 25127K   26257.61923611 -.00022424  00000+0 -17428-3 0  2574
2 64379  43.0008  26.0885 0001697 262.5329  42.3016 15.70834114    18

Track STARLINK-11743 in real time with AllMySat

Download on the App Store